星链-34600 (STARLINK-34600)

导读

STARLINK-34600是美国SpaceX星链互联网星座的组成卫星,于2025年6月28日发射入轨。作为低轨通信卫星,它承载卫星互联网组网任务,可为全球偏远地区、移动载体提供高速宽带网络接入,进一步扩充星链星座的覆盖容量与服务稳定性,延续SpaceX大规模低轨卫星星座的部署进程。

Basic Information
目录编号:
64699
目录名称:
STARLINK-34600
国际标识:
2025-142D
轨道中心:
EARTH
卫星名称:
星链-34600
卫星全名:
星链-34600 (STARLINK-34600)
卫星状态:
在轨 (已飞行433 天)
发射日期:
2025-06-28 UTC
国别 :
美国 (US)
星等 :
--
Orbit Information
数据来源 国际轨道数据
星历时间: 2026-09-04T12:00:02+0800
5小时前
查看轨道信息
半长轴: 6855.209km
偏心率: 0.0003531
轨道倾角: 70.001°
近地点辐角 271.946°
升交点赤经 223.908°
平近点角 241.073°
近地点: 474.651km
远地点: 479.493km
周期: 94.144分钟
每日圈数: 15.295783
Detailed Information
固有亮度:
5
最大亮度:
2.5
卫星平台:
Starlink V1.0
覆盖范围:
全球
运营商:
太空探索技术公司
运营商所在国:
美国
制造商(研发单位):
太空探索技术公司
制造商所在国:
美国
使用方式:
暂无
Satellite Introduction
Starlink 计划是 SpaceX 推出的全球卫星互联网项目,通过发射低轨道卫星,为全球尤其是偏远地区提供高速、低延迟的互联网服务。自 2019 年起,Starlink 已部署数千颗卫星,旨在缩小全球数字鸿沟,推动互联网普及。该项目还为军事、航空等行业提供通信支持,带来广泛经济效益。
2D Orbit Map
3D Orbit Map
Orbit Altitude Analysis Chart
Orbit Inclination Analysis Chart
Orbit Comprehensive Analysis Chart
View Comprehensive Chart
Conjunction Data List
Event ID Objects TCA Miss Dist (km) Collision Risk Probability Collision Risk Index (CRI) Action
CDM_260901-233506-469906-657221
2026-09-01T
23:35:56+0000
1.134 km
极远距离
1.558077E-5 中风险 0.59
CDM_260902-080205-860606-469921
2026-09-02T
08:02:43+0000
1.406 km
极远距离
3.611178E-6 低风险 0.46
CDM_260905-002906-358906-469921
2026-09-05T
00:29:11+0000
1.996 km
极远距离
2.603344E-6 低风险 0.43
CDM_260905-074306-469906-697721
2026-09-05T
07:43:37+0000
1.976 km
极远距离
2.543034E-6 低风险 0.43
CDM_260903-134905-841006-469921
2026-09-03T
13:49:44+0000
1.955 km
极远距离
2.514176E-6 低风险 0.43
CDM_260903-152206-327806-469921
2026-09-03T
15:22:07+0000
2.419 km
极远距离
1.430715E-6 低风险 0.38
CDM_260902-071505-860606-469921
2026-09-02T
07:15:37+0000
2.010 km
极远距离
1.322189E-6 低风险 0.37
CDM_260904-183705-829106-469921
2026-09-04T
18:37:17+0000
2.931 km
极远距离
1.215507E-6 低风险 0.37
CDM_260903-180705-919906-469922
2026-09-03T
18:07:00+0000
2.442 km
极远距离
1.172487E-6 低风险 0.36
CDM_260904-180206-469906-740521
2026-09-04T
18:02:54+0000
2.859 km
极远距离
1.065323E-6 低风险 0.36